Location: Observatoire
(46.1952°N, 5.3391°E)
Time: 06:27:17
(UTC+01:00)

Explorer 7 - Pass Details

Date: 18 February 2026
Orbit: 430 x 542 km, 50.2° (Epoch: 5 March)

Event Time Altitude Azimuth Distance (km) Brightness Sun altitude
Rises 22:24:13 0° 283° (WNW) 2,583 - -43.1°
Reaches altitude 10° 22:27:17 10° 256° (WSW) 1,722 - -43.6°
Maximum altitude 22:29:17 14° 226° (SW) 1,517 - -43.8°
Drops below altitude 10° 22:31:18 10° 195° (SSW) 1,749 - -44.1°
Sets 22:34:28 0° 169° (SSE) 2,654 - -44.6°
